This is the latest recevied weather packets stored in our database for station/object K7KAZ. If no packets are shown the sender has not sent any weather packets the latest 10 day(s).
| Time | Temp. | Humidity | Pressure | Rain* | Wind** | Luminosity | Snow |
|---|---|---|---|---|---|---|---|
| 1777438997 | 21.67° C | 22% | 1017.1 hPa | 0 mm | - | 0 W/m² | - |
| 1777438696 | 22.22° C | 22% | 1017.1 hPa | 0 mm | - | 0 W/m² | - |
| 1777438391 | 22.22° C | 22% | 1016.9 hPa | 0 mm | - | 0 W/m² | - |
| 1777438087 | 22.78° C | 21% | 1016.9 hPa | 0 mm | - | 0 W/m² | - |
| 1777437783 | 22.78° C | 20% | 1017.2 hPa | 0 mm | - | 0 W/m² | - |
| 1777437480 | 22.78° C | 21% | 1017 hPa | 0 mm | - | 0 W/m² | - |
| 1777437177 | 23.33° C | 21% | 1017 hPa | 0 mm | - | 0 W/m² | - |
| 1777436873 | 23.33° C | 20% | 1016.9 hPa | 0 mm | - | 0 W/m² | - |
| 1777436570 | 22.78° C | 20% | 1016.8 hPa | 0 mm | - | 0 W/m² | - |
| 1777436266 | 23.33° C | 19% | 1017 hPa | 0 mm | - | 0 W/m² | - |
| 1777435962 | 23.89° C | 19% | 1016.7 hPa | 0 mm | - | 0 W/m² | - |
| 1777435659 | 23.89° C | 18% | 1016.8 hPa | 0 mm | - | 0 W/m² | - |
| 1777435355 | 23.89° C | 18% | 1016.9 hPa | 0 mm | - | 0 W/m² | - |
| 1777435054 | 23.89° C | 18% | 1016.8 hPa | 0 mm | - | 0 W/m² | - |
| 1777434751 | 23.89° C | 18% | 1017 hPa | 0 mm | - | 0 W/m² | - |
| 1777434450 | 23.89° C | 18% | 1017 hPa | 0 mm | - | 0 W/m² | - |
| 1777434148 | 23.89° C | 18% | 1016.8 hPa | 0 mm | - | 0 W/m² | - |
| 1777433844 | 23.89° C | 18% | 1016.6 hPa | 0 mm | - | 0 W/m² | - |
| 1777433541 | 24.44° C | 18% | 1016.6 hPa | 0 mm | - | 0 W/m² | - |
| 1777433241 | 24.44° C | 17% | 1016.4 hPa | 0 mm | - | 0 W/m² | - |
| 1777432938 | 24.44° C | 17% | 1016.4 hPa | 0 mm | - | 0 W/m² | - |
| 1777432638 | 24.44° C | 17% | 1016.5 hPa | 0 mm | - | 0 W/m² | - |
| 1777432335 | 24.44° C | 17% | 1016.4 hPa | 0 mm | - | 0 W/m² | - |
| 1777432029 | 25° C | 17% | 1016.4 hPa | 0 mm | - | 0 W/m² | - |
| 1777431725 | 25° C | 17% | 1016.5 hPa | 0 mm | - | 0 W/m² | - |
* Rain latest hour (hover to see other rain measurements)
** Current wind speed in m/s (hover to see current wind gust speed)